星链-4786 (STARLINK-4786 )

导读 | 星芒AI

STARLINK-4786 是 SpaceX Starlink 项目中的一颗低轨通信卫星,属于该星座的第四批发射任务。该卫星设计用于提供全球高速互联网服务,运行在约 550 公里的近地轨道,采用先进的星间激光通信技术,以提高数据传输效率。它配备了可重构的相控阵天线,支持动态波束调整,以优化地面覆盖和信号质量。STARLINK-4786 于 2021 年发射,是 SpaceX 打造全球宽带网络计划的重要组成部分。

基本信息
目录编号:
55393
目录名称:
STARLINK-4786
国际标识:
2023-014C
轨道中心:
EARTH
卫星名称:
星链-4786
卫星全名:
星链-4786 (STARLINK-4786 )
卫星状态:
在轨 (已飞行1009 天)
发射日期:
2023-01-31 UTC
国别 :
美国 (US)
星等 :
--
轨道信息
数据来源 国际轨道数据
星历时间: 2025-11-04T19:37:13+0800
12小时前
查看轨道信息
半长轴: 6950.187km
偏心率: 0.0002646
轨道倾角: 70.002°
近地点辐角 270.252°
升交点赤经 20.045°
平近点角 89.834°
近地点: 570.212km
远地点: 573.892km
周期: 96.107分钟
每日圈数: 14.983322
详细信息
固有亮度:
5
最大亮度:
2.5
卫星平台:
Starlink v1.5
覆盖范围:
全球
运营商:
太空探索技术公司
运营商所在国:
美国
制造商(研发单位):
太空探索技术公司
制造商所在国:
美国
使用方式:
暂无
卫星简介
星链(Starlink)计划是由太空探索技术公司(SpaceX)提出的一个巨型低轨卫星互联网星座项目,计划在2019年至2024年间在太空搭建由约1.2万颗卫星组成的“星链”网络,其中1584颗将部署在地球上空550千米处的近地轨道,并从2020年开始工作。该卫星仍在工作。
2D轨道图
3D轨道图
轨道高度分析图
轨道倾角分析图
轨道综合分析图
查看轨道综合分析图